Regional Weather Roundup
Issued by NWS

Home | Current Version | Previous Version | Graphics & Text | Print | Product List | Glossary On
Versions: 1 2 3 4 5 6 7 8 9 10 11 12 13 14 15 16 17 18 19 20 21 22 23 24 25 26 27 28 29 30 31 32 33 34 35 36 37 38 39 40 41 42 43 44 45 46 47 48 49 50
000
ASUS43 KLOT 201910
RWRIL

ILLINOIS REGIONAL WEATHER ROUNDUP
NATIONAL WEATHER SERVICE CHICAGO/ROMEOVILLE IL
200 PM CDT SAT SEP 20 2014

NOTE: "FAIR" INDICATES FEW OR NO CLOUDS BELOW 12,000 FEET WITH NO
SIGNIFICANT WEATHER AND/OR OBSTRUCTIONS TO VISIBILITY.

* THESE STATIONS ARE NOT UNDER NWS QUALITY CONTROL. THEY ALSO MAY NOT
  REPORT WEATHER SUCH AS PRECIPITATION OR FOG.

ILZ001-002-007-009-015-016-024-202000-
NORTHWEST ILLINOIS

CITY           SKY/WX    TMP DP  RH WIND       PRES   REMARKS
MOLINE         CLOUDY    76  68  76 W7        29.87F
STERLING*      CLOUDY    72  66  83 W18G25    29.89R
SAVANNA*       CLOUDY    70  66  88 S8        29.85F
$$

ILZ003-004-008-010-011-017-018-202000-
NORTH CENTRAL ILLINOIS

CITY           SKY/WX    TMP DP  RH WIND       PRES   REMARKS
ROCKFORD       CLOUDY    76  64  66 SW14      29.84F
FREEPORT*      LGT RAIN  73  67  82 W13G22    29.88R
ROCHELLE*      MOSUNNY   76  63  65 W13G20    29.86F
DE KALB*       CLOUDY    73  65  78 SW12      29.86F
PERU*          CLOUDY    75  69  81 W8        29.89R
$$

ILZ005-006-012>014-019>023-202000-
NORTHEAST ILLINOIS

CITY           SKY/WX    TMP DP  RH WIND       PRES   REMARKS
CHICAGO-OHARE  LGT RAIN  72  69  90 W13G22    29.85S
CHICAGO-MIDWAY LGT RAIN  78  66  66 W12       29.86S HX  80
AURORA         CLOUDY    72  67  84 W5        29.87R HAZE
LANSING*       PTSUNNY   80  66  62 SW16G24   29.85F HX  82
JOLIET*        LGT RAIN  75  65  70 W7        29.89R
WAUKEGAN       CLOUDY    72  64  76 SW15      29.80F
DUPAGE AIRPORT LGT RAIN  72  67  84 SW10      29.87R
KANKAKEE*      PTSUNNY   81  68  65 SW16G26   29.86F HX  83
WHEELING       CLOUDY    76  64  66 SW14G22   29.86R
MORRIS*        TSTM      74  68  82 NW6G17    29.86S
ROMEOVILLE*    LGT RAIN  75  64  68 W13G18    29.89R
NORTHERLY ISL    N/A     76  63  64 W9          N/A
$$

LMZ740>746-202000-
SOUTHERN LAKE MICHIGAN

STATION/POSITION SKY/WX   TEMP    WIND        PRES    VSBY  WAVE
                          AIR SEA DIR/SP/G                  HT/PER
                          (F)     (DEG/KT/KT) (MB)    (MI)  (FT/S)
SOUTHERN BUOY              66 63  210/ 14/ 17 1008.9F         4/ 6
WAUKEGAN HARBOR            73     220/ 15/ 21   N/A
HARRISON CRIB              74     250/ 17/ 22   N/A
BURNHAM HARBOR             75     260/  8/ 15   N/A
CALUMET HARBOR             79     230/  9/ 15 1009.4R
MICHIGAN CITY              77     190/ 21/ 26   N/A
MICHIGAN CITY 6N           72 65  220/ 14/ 19   N/A           3/ 4
ST. JOSEPH                 71 65  210/ 12/ 16   N/A           3/ 4
$$

ILZ025>027-034>036-040-047-049-050-058-095>099-202000-
WEST-CENTRAL ILLINOIS

CITY           SKY/WX    TMP DP  RH WIND       PRES   REMARKS
QUINCY         CLOUDY    80  69  69 W9G20     29.94R HX  83
GALESBURG*     PTSUNNY   83  70  65 W17       29.89F HX  87
MACOMB*        CLOUDY    78  67  70 W12G20    29.94R HX  80
JACKSONVILLE*  CLOUDY    84  70  62 SW14G20   29.92F HX  88
PITTSFIELD*    CLOUDY    81  69  67 SW9G16    29.93F HX  84
$$

ILZ028>032-037-038-041>044-048-051>054-059>061-202000-
CENTRAL ILLINOIS

CITY           SKY/WX    TMP DP  RH WIND       PRES   REMARKS
PONTIAC        MOSUNNY   82  68  61 SW15G24   29.88R HX  85
DECATUR        MOSUNNY   83  68  60 SW18      29.91F HX  86
PEORIA         CLOUDY    79  68  69 W7        29.90S HX  81
LACON*         PTSUNNY   79  66  64 W10       29.88S HX  81
LINCOLN*       PTSUNNY   84  68  58 W13G24    29.88R HX  87
SPRINGFIELD    CLOUDY    83  69  62 SW14G20   29.92S HX  86
TAYLORVILLE    MOSUNNY   82  68  61 SW15G22   29.92F HX  85
$$

ILZ033-039-045-046-055>057-062-063-202000-
EAST-CENTRAL ILLINOIS

CITY           SKY/WX    TMP DP  RH WIND       PRES   REMARKS
CHAMPAIGN      MOSUNNY   83  66  56 SW20G25   29.90F HX  85
DANVILLE*      PTSUNNY   82  66  58 S16G23    29.87F HX  85
RANTOUL*       PTSUNNY   85  63  47 SW16G22   29.90F HX  86
MATTOON        MOSUNNY   79  67  66 S15G22    29.94F HX  81
PARIS*         PTSUNNY   83  67  58 SW15G26   29.94F HX  86
$$

ILZ079-100>102-202000-
SOUTHWEST ILLINOIS

CITY           SKY/WX    TMP DP  RH WIND       PRES   REMARKS
BELLEVILLE     PTSUNNY   85  70  60 VRB5      29.96F HX  89
CAHOKIA*       PTSUNNY   85  69  58 SW8       29.96F HX  89
SPARTA*        PTSUNNY   84  68  59 S10       29.99F HX  87
$$

ILZ064>066-069>071-074>076-080>082-084>086-088>090-092>094-202000-
SOUTH-CENTRAL ILLINOIS

CITY           SKY/WX    TMP DP  RH WIND       PRES   REMARKS
CARBONDALE     PTSUNNY   82  67  60 SW14      30.00F HX  84
CAIRO*         MOSUNNY   86  68  55 SW7       30.01F HX  89
EFFINGHAM*     MOSUNNY   83  63  51 SW16G22   29.96F HX  84
MARION         PTSUNNY   86  70  58 SW12      30.01F HX  90
MT. VERNON     PTSUNNY   82  70  65 S12       29.99F HX  86
CENTRALIA*     PTSUNNY   84  67  57 SW9       29.97F HX  86
SALEM*         PTSUNNY   83  71  67 SW13      29.97F HX  88
METROPOLIS*    PTSUNNY   85  68  55 S9        30.01F HX  88
$$

ILZ067-068-072-073-078-083-087-091-202000-
SOUTHEAST ILLINOIS

CITY           SKY/WX    TMP DP  RH WIND       PRES   REMARKS
LAWRENCEVILLE  PTSUNNY   85  67  54 SW16      29.97F HX  87
FLORA*         PTSUNNY   83  67  58 SW16      29.97F HX  86
FAIRFIELD*     MOSUNNY  N/A N/A N/A SW10      29.97F
HARRISBURG*    MOSUNNY   83  67  57 S12       30.02F HX  86
ROBINSON*      PTSUNNY   85  69  60 SW16      29.97F HX  89
CARMI*         MOSUNNY   86  69  55 SW13G18   29.99F HX  90
$$

ABBREVIATIONS USED IN REMARKS
   TC - TEMPERATURE IN CELSIUS
  WCI - WIND CHILL INDEX
   HX - HEAT INDEX
  VSB - VISIBILITY
$$



USA.gov is the U.S. government's official web portal to all federal, state and local government web resources and services.